CW0262 Weather Reports


Display with metric or nautical units.
time (UTC)temp
F
wind
direction
speed
MPH
gust
MPH
rain 1hr
in
rain 24hr
in
rain mn
in
humidity
%
barometer
mb
20260507231705 87 153 7.0 10.0 0.00 0.00 0.00 71 1012.2
20260507231204 87 129 7.0 9.0 0.00 0.00 0.00 71 1012.2
20260507230204 88 134 6.0 12.0 0.00 0.00 0.00 69 1012.2
20260507224705 89 131 8.0 10.0 0.00 0.00 0.00 68 1012.2
20260507224204 89 127 5.0 9.0 0.00 0.00 0.00 69 1012.2
20260507223704 89 145 5.0 9.0 0.00 0.00 0.00 68 1012.2
20260507223204 89 132 6.0 13.0 0.00 0.00 0.00 67 1012.2
20260507221704 90 125 8.0 10.0 0.00 0.00 0.00 66 1012.2
20260507221204 90 140 7.0 13.0 0.00 0.00 0.00 67 1012.2
20260507220703 90 118 7.0 10.0 0.00 0.00 0.00 66 1012.2
20260507220205 90 130 8.0 13.0 0.00 0.00 0.00 66 1012.2
20260507214705 91 122 6.0 10.0 0.00 0.00 0.00 67 1012.2
20260507213705 91 118 7.0 10.0 0.00 0.00 0.00 65 1012.2
20260507213204 92 102 8.0 10.0 0.00 0.00 0.00 64 1012.2
20260507211704 94 108 5.0 9.0 0.00 0.00 0.00 59 1013.2
20260507211204 96 121 7.0 10.0 0.00 0.00 0.00 57 1012.5
20260507210703 98 132 1.0 6.0 0.00 0.00 0.00 49 1012.2
20260507210203 98 275 6.0 10.0 0.00 0.00 0.00 47 1012.2
20260507204704 98 251 6.0 9.0 0.00 0.00 0.00 47 1012.2
20260507204204 98 249 6.0 12.0 0.00 0.00 0.00 47 1012.5
20260507203705 98 235 7.0 10.0 0.00 0.00 0.00 47 1013.2
20260507203203 98 230 7.0 13.0 0.00 0.00 0.00 47 1013.2
20260507201704 98 283 7.0 13.0 0.00 0.00 0.00 47 1013.2
20260507201203 98 264 8.0 15.0 0.00 0.00 0.00 47 1013.2
20260507200704 98 267 10.0 13.0 0.00 0.00 0.00 47 1013.2
20260507200204 98 296 6.0 14.0 0.00 0.00 0.00 46 1013.2
20260507194704 99 264 7.0 10.0 0.00 0.00 0.00 48 1013.2
20260507194204 99 242 3.0 10.0 0.00 0.00 0.00 47 1013.2
20260507193204 99 248 8.0 13.0 0.00 0.00 0.00 48 1013.2
20260507191703 99 277 10.0 13.0 0.00 0.00 0.00 47 1014.2
20260507191204 99 237 6.0 13.0 0.00 0.00 0.00 49 1014.2
20260507190704 99 257 7.0 12.0 0.00 0.00 0.00 49 1014.2
20260507190204 98 231 7.0 15.0 0.00 0.00 0.00 50 1014.2
20260507184705 98 238 7.0 12.0 0.00 0.00 0.00 51 1014.2
20260507184203 97 244 9.0 15.0 0.00 0.00 0.00 50 1014.2
20260507183204 97 327 7.0 13.0 0.00 0.00 0.00 50 1014.2
20260507181703 97 261 7.0 13.0 0.00 0.00 0.00 50 1014.2
20260507180204 98 245 7.0 13.0 0.00 0.00 0.00 52 1014.2
20260507174705 98 291 8.0 10.0 0.00 0.00 0.00 53 1015.2
20260507173704 98 216 6.0 10.0 0.00 0.00 0.00 54 1015.2
20260507173204 97 249 6.0 15.0 0.00 0.00 0.00 54 1015.2
20260507171204 97 270 9.0 13.0 0.00 0.00 0.00 54 1015.2
20260507170704 97 264 7.0 13.0 0.00 0.00 0.00 54 1015.2
20260507170204 96 266 7.0 13.0 0.00 0.00 0.00 55 1015.2
20260507164705 97 284 6.0 10.0 0.00 0.00 0.00 54 1015.2
20260507164203 96 261 5.0 12.0 0.00 0.00 0.00 55 1015.2
20260507161204 94 274 7.0 12.0 0.00 0.00 0.00 56 1015.2
20260507160704 94 295 7.0 10.0 0.00 0.00 0.00 56 1015.2
20260507160204 95 302 6.0 10.0 0.00 0.00 0.00 56 1015.2
20260507154704 96 231 5.0 9.0 0.00 0.00 0.00 56 1016.2
20260507154205 95 212 5.0 8.0 0.00 0.00 0.00 57 1016.2
20260507153704 95 275 6.0 6.0 0.00 0.00 0.00 57 1016.2
20260507153205 94 265 6.0 12.0 0.00 0.00 0.00 57 1016.2
20260507151705 94 232 7.0 10.0 0.00 0.00 0.00 58 1016.2
20260507151205 93 233 7.0 12.0 0.00 0.00 0.00 58 1016.2
20260507150704 93 229 8.0 10.0 0.00 0.00 0.00 58 1016.2
20260507150203 93 208 5.0 12.0 0.00 0.00 0.00 58 1016.2
20260507144204 92 217 6.0 8.0 0.00 0.00 0.00 60 1016.2
20260507143704 91 195 5.0 8.0 0.00 0.00 0.00 59 1016.2
20260507143204 91 217 8.0 12.0 0.00 0.00 0.00 60 1016.2
20260507141704 90 242 7.0 10.0 0.00 0.00 0.00 63 1016.2
20260507140704 89 223 7.0 9.0 0.00 0.00 0.00 65 1016.2
20260507140203 88 241 5.0 10.0 0.00 0.00 0.00 65 1016.2
20260507134704 87 208 6.0 8.0 0.00 0.00 0.00 69 1016.2
20260507134205 87 216 7.0 12.0 0.00 0.00 0.00 69 1016.2
20260507133705 87 228 7.0 9.0 0.00 0.00 0.00 69 1016.2
20260507133204 87 209 6.0 12.0 0.00 0.00 0.00 69 1016.2
20260507131704 89 206 6.0 9.0 0.00 0.00 0.00 66 1016.2
20260507131205 88 224 5.0 8.0 0.00 0.00 0.00 70 1016.2
20260507130704 86 237 6.0 8.0 0.00 0.00 0.00 73 1016.2
20260507130204 85 213 5.0 8.0 0.00 0.00 0.00 75 1016.2
20260507124703 84 216 3.0 6.0 0.00 0.00 0.00 78 1016.2
20260507123703 86 198 5.0 6.0 0.00 0.00 0.00 73 1016.2
20260507123204 84 213 1.0 6.0 0.00 0.00 0.00 82 1016.2
20260507121704 79 248 0.0 2.0 0.00 0.00 0.00 93 1016.2
20260507121204 77 266 0.0 2.0 0.00 0.00 0.00 94 1016.2
20260507120704 77 328 0.0 0.0 0.00 0.00 0.00 96 1016.2
20260507120203 76 328 0.0 0.0 0.00 0.00 0.00 96 1016.2
20260507114703 75 328 0.0 0.0 0.00 0.00 0.00 98 1016.2
20260507114204 75 328 0.0 0.0 0.00 0.00 0.00 99 1016.2
20260507113703 75 328 0.0 0.0 0.00 0.00 0.00 100 1016.2
20260507111704 74 332 0.0 0.0 0.00 0.00 0.00 100 1016.2
20260507111203 73 332 0.0 0.0 0.00 0.00 0.00 100 1016.2
20260507110704 71 332 0.0 0.0 0.00 0.00 0.00 100 1016.2
20260507110205 70 332 0.0 3.0 0.00 0.00 0.00 100 1016.2
20260507104705 69 316 0.0 3.0 0.00 0.00 0.00 100 1015.2
20260507104204 69 331 0.0 6.0 0.00 0.00 0.00 100 1015.2
20260507103703 69 300 3.0 6.0 0.00 0.00 0.00 100 1015.2
20260507103205 69 315 0.0 6.0 0.00 0.00 0.00 100 1015.2
20260507101704 69 294 5.0 6.0 0.00 0.00 0.00 100 1015.2
20260507100204 69 189 0.0 0.0 0.00 0.00 0.00 100 1014.2
20260507094704 69 148 0.0 3.0 0.00 0.00 0.00 100 1014.2
20260507094203 69 111 1.0 3.0 0.00 0.00 0.00 100 1014.2
20260507093704 69 127 1.0 2.0 0.00 0.00 0.00 100 1014.2
20260507093205 69 153 0.0 2.0 0.00 0.00 0.00 100 1014.2
20260507091704 69 209 0.0 0.0 0.00 0.00 0.00 100 1014.2
20260507091204 69 209 0.0 0.0 0.00 0.00 0.00 100 1014.2
20260507090205 69 209 0.0 3.0 0.00 0.00 0.00 100 1014.2
20260507084703 69 232 0.0 2.0 0.00 0.00 0.00 100 1014.2
20260507084204 69 71 0.0 2.0 0.00 0.00 0.00 100 1014.2
20260507083705 69 71 0.0 0.0 0.00 0.00 0.00 100 1014.2
20260507083203 69 71 0.0 0.0 0.00 0.00 0.00 100 1014.2
20260507080704 69 71 0.0 0.0 0.00 0.00 0.00 100 1014.2
20260507080204 70 71 0.0 2.0 0.00 0.00 0.00 100 1014.2
20260507074704 70 222 0.0 0.0 0.00 0.00 0.00 100 1014.2
20260507074204 70 222 0.0 0.0 0.00 0.00 0.00 100 1014.2
20260507073703 70 222 0.0 0.0 0.00 0.00 0.00 100 1014.2
20260507073203 70 222 0.0 0.0 0.00 0.00 0.00 100 1014.2
20260507071704 70 223 0.0 0.0 0.00 0.00 0.00 100 1015.2
20260507071205 70 222 0.0 0.0 0.00 0.00 0.00 100 1015.2
20260507070705 70 222 0.0 0.0 0.00 0.00 0.00 100 1015.2
20260507070204 70 223 0.0 0.0 0.00 0.00 0.00 100 1015.2
20260507063704 71 222 2.0 3.0 0.00 0.00 0.00 100 1015.2
20260507063203 71 223 0.0 3.0 0.00 0.00 0.00 99 1015.2
20260507061704 71 217 0.0 2.0 0.00 0.00 0.00 99 1015.2
20260507061204 71 217 0.0 3.0 0.00 0.00 0.00 98 1015.2
20260507060705 71 217 2.0 3.0 0.00 0.00 0.00 98 1015.2
20260507060205 72 216 1.0 2.0 0.00 0.00 0.00 97 1015.2
20260507054704 72 216 0.0 0.0 0.00 0.00 0.00 97 1015.2
20260507054204 72 217 1.0 3.0 0.00 0.00 0.00 97 1015.5
20260507053705 72 239 1.0 3.0 0.00 0.00 0.00 96 1016.2
20260507053204 72 236 0.0 3.0 0.00 0.00 0.00 96 1016.2
20260507051704 73 244 3.0 3.0 0.00 0.00 0.00 95 1016.2
20260507051204 73 226 0.0 3.0 0.00 0.00 0.00 95 1016.2
20260507050704 73 204 0.0 0.0 0.00 0.00 0.00 95 1016.2
20260507050203 73 176 0.0 3.0 0.00 0.00 0.00 95 1016.2
20260507044704 74 140 0.0 2.0 0.00 0.00 0.00 95 1016.2
20260507044204 74 127 0.0 3.0 0.00 0.00 0.00 94 1016.2
20260507043705 74 136 1.0 3.0 0.00 0.00 0.00 94 1016.2
20260507041703 74 134 1.0 3.0 0.00 0.00 0.00 94 1016.2
20260507041204 74 130 0.0 3.0 0.00 0.00 0.00 94 1016.2
20260507040204 74 131 3.0 3.0 0.00 0.00 0.00 94 1016.2
20260507033204 75 138 3.0 3.0 0.00 0.00 0.00 93 1016.2
20260507031704 75 133 2.0 3.0 0.00 0.00 0.00 90 1016.2
20260507031205 75 137 2.0 3.0 0.00 0.00 0.00 90 1016.2
20260507030704 76 134 3.0 5.0 0.00 0.00 0.00 89 1016.2
20260507030205 76 133 2.0 5.0 0.00 0.00 0.00 88 1016.2
20260507024705 76 156 3.0 5.0 0.00 0.00 0.00 87 1016.2
20260507024204 76 154 3.0 5.0 0.00 0.00 0.00 87 1016.2
20260507023703 76 156 2.0 3.0 0.00 0.00 0.00 87 1016.2
20260507023204 76 154 2.0 5.0 0.00 0.00 0.00 87 1016.2
20260507021705 76 120 3.0 5.0 0.00 0.00 0.00 86 1016.2
20260507020704 76 108 4.0 6.0 0.00 0.00 0.00 86 1016.2
20260507020204 77 123 3.0 5.0 0.00 0.00 0.00 85 1016.2
20260507014204 77 104 5.0 6.0 0.00 0.00 0.00 84 1016.2
20260507013704 77 113 4.0 6.0 0.00 0.00 0.00 82 1016.2
20260507013204 77 113 3.0 6.0 0.00 0.00 0.00 81 1016.2
20260507011704 77 122 3.0 5.0 0.00 0.00 0.00 79 1016.2
20260507010704 78 111 3.0 3.0 0.00 0.00 0.00 78 1016.2
20260507010204 78 116 2.0 3.0 0.00 0.00 0.00 78 1016.2
20260507004705 78 128 3.0 6.0 0.00 0.00 0.00 76 1016.2
20260507004204 78 128 2.0 6.0 0.00 0.00 0.00 76 1015.5
20260507003703 79 138 3.0 6.0 0.00 0.00 0.00 76 1015.2
20260507003204 79 119 3.0 6.0 0.00 0.00 0.00 75 1015.2
20260507001704 79 115 3.0 6.0 0.00 0.00 0.00 73 1016.2
20260507001204 80 123 3.0 6.0 0.00 0.00 0.00 72 1015.8
20260507000705 80 123 3.0 6.0 0.00 0.00 0.00 72 1015.2
20260507000212 80 121 5.0 8.0 0.00 0.00 0.00 72 1015.2
20260506234703 81 124 6.0 8.0 0.00 0.00 0.00 69 1015.2
20260506234204 81 113 6.0 9.0 0.00 0.00 0.00 69 1015.2
20260506233705 81 103 5.0 8.0 0.00 0.00 0.00 69 1015.2
20260506233203 82 108 5.0 10.0 0.00 0.00 0.00 68 1015.2